| time (UTC) | temp F | wind direction | speed knots | gust knots | rain 1hr in | rain 24hr in | rain mn in | humidity % | barometer mb |
| 20260901101502 | 58 | 65 | 0.0 | 0.0 | 0.00 | 0.01 | 0.01 | 84 | 1025.9 |
| 20260901100922 | 58 | 65 | 0.0 | 0.0 | 0.00 | 0.01 | 0.01 | 83 | 1026.0 |
| 20260901100618 | 58 | 65 | 0.0 | 0.0 | 0.00 | 0.01 | 0.01 | 83 | 1026.0 |
| 20260901095830 | 59 | 65 | 0.0 | 0.0 | 0.00 | 0.01 | 0.01 | 83 | 1026.0 |
| 20260901095301 | 59 | 65 | 0.0 | 0.0 | 0.00 | 0.01 | 0.01 | 82 | 1026.0 |
| 20260901094744 | 59 | 65 | 0.0 | 0.0 | 0.00 | 0.01 | 0.01 | 82 | 1025.9 |
| 20260901094233 | 59 | 65 | 0.0 | 0.0 | 0.00 | 0.01 | 0.01 | 82 | 1025.9 |
| 20260901093731 | 60 | 65 | 0.0 | 0.0 | 0.00 | 0.01 | 0.01 | 81 | 1025.9 |
| 20260901093229 | 60 | 65 | 0.0 | 0.0 | 0.00 | 0.01 | 0.01 | 81 | 1025.9 |
| 20260901092727 | 60 | 65 | 0.0 | 0.0 | 0.00 | 0.01 | 0.01 | 80 | 1026.0 |
| 20260901092225 | 60 | 65 | 0.0 | 0.0 | 0.00 | 0.01 | 0.01 | 80 | 1025.9 |
| 20260901091725 | 61 | 65 | 0.0 | 0.9 | 0.00 | 0.01 | 0.01 | 80 | 1025.8 |
| 20260901091225 | 61 | 65 | 0.0 | 0.9 | 0.00 | 0.01 | 0.01 | 79 | 1025.8 |
| 20260901090719 | 61 | 65 | 0.0 | 0.9 | 0.00 | 0.01 | 0.01 | 78 | 1025.6 |
| 20260901090216 | 62 | 65 | 0.0 | 0.9 | 0.00 | 0.01 | 0.01 | 78 | 1025.6 |
| 20260901085943 | 62 | 65 | 0.0 | 0.9 | 0.00 | 0.01 | 0.01 | 77 | 1025.6 |
| 20260901085214 | 62 | 64 | 0.0 | 0.0 | 0.00 | 0.01 | 0.01 | 77 | 1025.5 |
| 20260901084713 | 63 | 65 | 0.0 | 0.0 | 0.00 | 0.01 | 0.01 | 76 | 1025.5 |
| 20260901084228 | 63 | 65 | 0.0 | 0.9 | 0.00 | 0.01 | 0.01 | 76 | 1025.4 |
| 20260901083659 | 63 | 65 | 0.0 | 0.9 | 0.00 | 0.01 | 0.01 | 75 | 1025.4 |
| 20260901083157 | 63 | 64 | 0.0 | 0.9 | 0.00 | 0.01 | 0.01 | 75 | 1025.4 |
| 20260901082655 | 64 | 65 | 0.0 | 0.9 | 0.00 | 0.01 | 0.01 | 74 | 1025.2 |
| 20260901082153 | 64 | 65 | 0.0 | 0.0 | 0.00 | 0.01 | 0.01 | 74 | 1025.2 |
| 20260901081646 | 64 | 65 | 0.0 | 0.0 | 0.00 | 0.01 | 0.01 | 73 | 1025.2 |
| 20260901081143 | 64 | 65 | 0.0 | 0.0 | 0.00 | 0.01 | 0.01 | 73 | 1025.1 |
| 20260901080654 | 65 | 65 | 0.0 | 0.9 | 0.00 | 0.01 | 0.01 | 72 | 1025.0 |
| 20260901080141 | 65 | 64 | 0.0 | 1.7 | 0.00 | 0.01 | 0.01 | 72 | 1025.0 |
| 20260901075644 | 65 | 64 | 0.0 | 1.7 | 0.00 | 0.01 | 0.01 | 72 | 1025.0 |
| 20260901075359 | 65 | 65 | 0.0 | 1.7 | 0.00 | 0.01 | 0.01 | 72 | 1024.9 |
| 20260901074636 | 65 | 65 | 0.0 | 1.7 | 0.00 | 0.01 | 0.01 | 71 | 1024.9 |
| 20260901074131 | 66 | 64 | 0.0 | 1.7 | 0.00 | 0.01 | 0.01 | 71 | 1024.8 |
| 20260901073644 | 66 | 65 | 0.0 | 1.7 | 0.00 | 0.01 | 0.01 | 71 | 1024.8 |
| 20260901073130 | 66 | 65 | 0.0 | 2.6 | 0.00 | 0.01 | 0.01 | 71 | 1024.9 |
| 20260901072630 | 66 | 64 | 0.9 | 2.6 | 0.00 | 0.01 | 0.01 | 70 | 1024.9 |
| 20260901072102 | 66 | 65 | 0.9 | 2.6 | 0.00 | 0.01 | 0.01 | 70 | 1024.8 |
| 20260901071535 | 67 | 64 | 0.9 | 2.6 | 0.00 | 0.01 | 0.01 | 70 | 1024.8 |
| 20260901071035 | 67 | 65 | 0.9 | 3.5 | 0.00 | 0.01 | 0.01 | 70 | 1024.8 |
| 20260901070534 | 67 | 64 | 0.9 | 3.5 | 0.00 | 0.01 | 0.01 | 70 | 1024.8 |
| 20260901070007 | 67 | 66 | 0.9 | 3.5 | 0.00 | 0.01 | 0.01 | 70 | 1024.7 |
| 20260901065454 | 67 | 67 | 0.9 | 3.5 | 0.00 | 0.01 | 0.01 | 71 | 1024.7 |
| 20260901064955 | 67 | 58 | 0.9 | 1.7 | 0.00 | 0.01 | 0.01 | 71 | 1024.7 |
| 20260901064455 | 67 | 58 | 0.0 | 1.7 | 0.00 | 0.01 | 0.01 | 71 | 1024.7 |
| 20260901063956 | 67 | 58 | 0.9 | 2.6 | 0.00 | 0.01 | 0.01 | 70 | 1024.7 |
| 20260901063452 | 67 | 58 | 0.9 | 3.5 | 0.00 | 0.01 | 0.01 | 70 | 1024.7 |
| 20260901062949 | 68 | 58 | 0.9 | 3.5 | 0.00 | 0.01 | 0.01 | 69 | 1024.7 |
| 20260901062707 | 68 | 55 | 0.9 | 3.5 | 0.00 | 0.01 | 0.01 | 69 | 1024.6 |
| 20260901061949 | 68 | 58 | 0.9 | 3.5 | 0.00 | 0.01 | 0.01 | 68 | 1024.7 |
| 20260901061447 | 68 | 0 | 0.9 | 3.5 | 0.00 | 0.01 | 0.01 | 68 | 1024.7 |
| 20260901060945 | 69 | 47 | 0.9 | 3.5 | 0.00 | 0.01 | 0.01 | 67 | 1024.7 |
| 20260901060444 | 69 | 20 | 0.9 | 3.5 | 0.00 | 0.01 | 0.01 | 68 | 1024.7 |
| 20260901055937 | 69 | 68 | 0.9 | 3.5 | 0.00 | 0.01 | 0.01 | 68 | 1024.8 |
| 20260901055436 | 69 | 69 | 0.9 | 2.6 | 0.00 | 0.01 | 0.01 | 67 | 1024.8 |
| 20260901054933 | 69 | 69 | 0.9 | 2.6 | 0.00 | 0.01 | 0.01 | 67 | 1024.8 |
| 20260901054436 | 69 | 68 | 0.9 | 2.6 | 0.00 | 0.01 | 0.01 | 68 | 1024.8 |
| 20260901053916 | 69 | 69 | 0.9 | 3.5 | 0.00 | 0.01 | 0.01 | 68 | 1024.8 |
| 20260901053636 | 69 | 21 | 0.9 | 3.5 | 0.00 | 0.01 | 0.01 | 68 | 1024.8 |
| 20260901052849 | 69 | 51 | 0.9 | 3.5 | 0.00 | 0.01 | 0.01 | 67 | 1024.8 |
| 20260901052351 | 70 | 39 | 0.9 | 3.5 | 0.00 | 0.01 | 0.01 | 67 | 1024.8 |
| 20260901051836 | 70 | 52 | 0.9 | 2.6 | 0.00 | 0.01 | 0.01 | 68 | 1024.9 |
| 20260901051332 | 70 | 58 | 0.9 | 2.6 | 0.00 | 0.01 | 0.01 | 68 | 1024.9 |
| 20260901050831 | 70 | 58 | 0.9 | 2.6 | 0.00 | 0.01 | 0.01 | 68 | 1025.0 |
| 20260901050331 | 70 | 58 | 0.9 | 2.6 | 0.00 | 0.01 | 0.01 | 69 | 1025.0 |
| 20260901045831 | 70 | 47 | 0.9 | 2.6 | 0.00 | 0.01 | 0.01 | 69 | 1025.0 |
| 20260901045329 | 70 | 47 | 0.9 | 2.6 | 0.00 | 0.01 | 0.01 | 69 | 1025.1 |
| 20260901044829 | 70 | 55 | 0.9 | 2.6 | 0.00 | 0.01 | 0.01 | 69 | 1025.1 |
| 20260901044332 | 70 | 55 | 0.9 | 2.6 | 0.00 | 0.01 | 0.01 | 69 | 1025.2 |
| 20260901043823 | 70 | 57 | 0.9 | 2.6 | 0.00 | 0.01 | 0.01 | 68 | 1025.3 |
| 20260901043323 | 71 | 29 | 0.9 | 2.6 | 0.00 | 0.01 | 0.01 | 68 | 1025.3 |
| 20260901042819 | 71 | 118 | 0.9 | 6.1 | 0.00 | 0.01 | 0.01 | 68 | 1025.4 |
| 20260901042322 | 71 | 125 | 0.9 | 6.1 | 0.00 | 0.01 | 0.01 | 67 | 1025.4 |
| 20260901041816 | 71 | 52 | 1.7 | 6.1 | 0.00 | 0.01 | 0.01 | 67 | 1025.5 |
| 20260901041317 | 71 | 120 | 1.7 | 7.0 | 0.00 | 0.01 | 0.01 | 67 | 1025.6 |
| 20260901040817 | 71 | 135 | 1.7 | 7.0 | 0.00 | 0.01 | 0.01 | 67 | 1025.6 |
| 20260901040311 | 71 | 93 | 0.9 | 3.5 | 0.00 | 0.01 | 0.01 | 67 | 1025.7 |
| 20260901035821 | 71 | 122 | 0.9 | 7.8 | 0.00 | 0.01 | 0.01 | 67 | 1025.7 |
| 20260901035309 | 71 | 81 | 0.9 | 7.8 | 0.00 | 0.01 | 0.01 | 67 | 1025.7 |
| 20260901034806 | 71 | 118 | 0.9 | 4.3 | 0.00 | 0.01 | 0.01 | 67 | 1025.7 |
| 20260901034307 | 71 | 118 | 0.9 | 4.3 | 0.00 | 0.01 | 0.01 | 67 | 1025.8 |
| 20260901033805 | 72 | 44 | 0.9 | 3.5 | 0.00 | 0.01 | 0.01 | 66 | 1025.8 |
| 20260901033304 | 72 | 22 | 1.7 | 6.1 | 0.00 | 0.01 | 0.01 | 66 | 1025.8 |
| 20260901032804 | 72 | 120 | 0.9 | 6.1 | 0.00 | 0.01 | 0.01 | 65 | 1025.9 |
| 20260901032306 | 73 | 121 | 0.9 | 7.0 | 0.00 | 0.01 | 0.01 | 65 | 1026.0 |
| 20260901031805 | 73 | 55 | 0.9 | 7.0 | 0.00 | 0.01 | 0.01 | 65 | 1026.0 |
| 20260901031236 | 73 | 54 | 1.7 | 7.0 | 0.00 | 0.01 | 0.01 | 64 | 1026.0 |
| 20260901030736 | 74 | 124 | 1.7 | 7.0 | 0.00 | 0.01 | 0.01 | 63 | 1026.1 |
| 20260901030238 | 74 | 120 | 1.7 | 7.0 | 0.00 | 0.01 | 0.01 | 65 | 1026.2 |
| 20260901025734 | 73 | 27 | 1.7 | 7.0 | 0.00 | 0.01 | 0.01 | 64 | 1026.2 |
| 20260901025232 | 73 | 125 | 0.9 | 4.3 | 0.00 | 0.01 | 0.01 | 66 | 1026.4 |
| 20260901024731 | 73 | 129 | 0.9 | 4.3 | 0.00 | 0.01 | 0.01 | 65 | 1026.5 |
| 20260901024229 | 72 | 129 | 0.9 | 4.3 | 0.00 | 0.01 | 0.01 | 66 | 1026.6 |
| 20260901023728 | 72 | 56 | 0.9 | 3.5 | 0.00 | 0.01 | 0.01 | 67 | 1026.7 |
| 20260901023449 | 72 | 56 | 0.9 | 3.5 | 0.00 | 0.01 | 0.01 | 67 | 1026.8 |
| 20260901022726 | 71 | 56 | 0.9 | 4.3 | 0.00 | 0.01 | 0.01 | 67 | 1026.9 |
| 20260901022703 | 71 | 47 | 0.9 | 4.3 | 0.00 | 0.01 | 0.01 | 68 | 1027.0 |
| 20260901021724 | 71 | 119 | 0.9 | 2.6 | 0.00 | 0.01 | 0.01 | 67 | 1027.0 |
| 20260901021225 | 71 | 119 | 0.9 | 3.5 | 0.00 | 0.01 | 0.01 | 68 | 1027.2 |
| 20260901020722 | 71 | 120 | 0.9 | 3.5 | 0.00 | 0.01 | 0.01 | 68 | 1027.3 |
| 20260901020225 | 71 | 120 | 0.9 | 3.5 | 0.00 | 0.01 | 0.01 | 68 | 1027.4 |
| 20260901015700 | 71 | 120 | 0.9 | 3.5 | 0.00 | 0.01 | 0.01 | 69 | 1027.4 |
| 20260901015158 | 71 | 175 | 0.9 | 4.3 | 0.00 | 0.01 | 0.01 | 71 | 1027.4 |
| 20260901014659 | 71 | 175 | 0.9 | 4.3 | 0.00 | 0.01 | 0.01 | 71 | 1027.5 |
| 20260901014155 | 71 | 141 | 0.9 | 4.3 | 0.00 | 0.01 | 0.01 | 71 | 1027.7 |
| 20260901013652 | 71 | 126 | 0.9 | 4.3 | 0.00 | 0.01 | 0.01 | 71 | 1027.8 |
| 20260901013151 | 71 | 118 | 1.7 | 4.3 | 0.00 | 0.01 | 0.01 | 70 | 1027.9 |
| 20260901012649 | 72 | 118 | 1.7 | 4.3 | 0.00 | 0.01 | 0.01 | 69 | 1028.0 |
| 20260901012408 | 72 | 119 | 1.7 | 4.3 | 0.00 | 0.01 | 0.01 | 70 | 1028.1 |
| 20260901011912 | 72 | 117 | 0.9 | 3.5 | 0.00 | 0.01 | 0.01 | 70 | 1028.2 |
| 20260901011149 | 72 | 199 | 0.9 | 4.3 | 0.00 | 0.01 | 0.01 | 70 | 1028.3 |
| 20260901010640 | 72 | 120 | 0.9 | 4.3 | 0.00 | 0.01 | 0.01 | 71 | 1028.4 |
| 20260901010138 | 72 | 122 | 0.9 | 6.1 | 0.00 | 0.01 | 0.01 | 73 | 1028.4 |
| 20260901005636 | 71 | 48 | 0.9 | 6.1 | 0.00 | 0.01 | 0.01 | 74 | 1028.5 |
| 20260901005137 | 71 | 99 | 0.9 | 5.2 | 0.00 | 0.01 | 0.01 | 74 | 1028.6 |
| 20260901004636 | 71 | 99 | 1.7 | 5.2 | 0.00 | 0.01 | 0.01 | 77 | 1028.7 |
| 20260901004354 | 70 | 212 | 2.6 | 4.3 | 0.00 | 0.01 | 0.01 | 78 | 1028.8 |
| 20260901003637 | 70 | 233 | 2.6 | 4.3 | 0.00 | 0.01 | 0.01 | 79 | 1028.8 |
| 20260901003113 | 69 | 135 | 2.6 | 4.3 | 0.00 | 0.01 | 0.01 | 81 | 1029.0 |
| 20260901002612 | 69 | 199 | 2.6 | 4.3 | 0.00 | 0.01 | 0.01 | 82 | 1029.1 |
| 20260901002109 | 68 | 122 | 1.7 | 5.2 | 0.00 | 0.01 | 0.01 | 83 | 1029.2 |
| 20260901001607 | 68 | 196 | 2.6 | 7.0 | 0.00 | 0.01 | 0.01 | 86 | 1029.4 |
| 20260901001105 | 67 | 202 | 2.6 | 7.0 | 0.00 | 0.01 | 0.01 | 87 | 1029.5 |
| 20260901000837 | 67 | 239 | 1.7 | 6.1 | 0.00 | 0.01 | 0.01 | 89 | 1029.6 |
| 20260901000109 | 66 | 165 | 1.7 | 4.3 | 0.00 | 0.01 | 0.01 | 90 | 1029.6 |
| 20260831235602 | 66 | 224 | 1.7 | 5.2 | 0.00 | 0.01 | 0.01 | 90 | 1029.6 |
| 20260831235059 | 65 | 154 | 1.7 | 5.2 | 0.00 | 0.01 | 0.01 | 91 | 1029.8 |
| 20260831234557 | 65 | 185 | 0.9 | 4.3 | 0.00 | 0.01 | 0.01 | 92 | 1029.7 |
| 20260831234326 | 64 | 201 | 0.9 | 3.5 | 0.00 | 0.01 | 0.01 | 93 | 1029.7 |
| 20260831233552 | 64 | 202 | 1.7 | 3.5 | 0.00 | 0.01 | 0.01 | 92 | 1029.7 |
| 20260831233050 | 64 | 199 | 1.7 | 3.5 | 0.00 | 0.01 | 0.01 | 93 | 1029.7 |
| 20260831232553 | 64 | 180 | 1.7 | 4.3 | 0.00 | 0.01 | 0.01 | 93 | 1029.7 |
| 20260831232041 | 63 | 180 | 1.7 | 4.3 | 0.00 | 0.01 | 0.01 | 93 | 1029.7 |
| 20260831231801 | 63 | 199 | 1.7 | 3.5 | 0.01 | 0.01 | 0.01 | 93 | 1029.6 |
| 20260831231038 | 63 | 203 | 1.7 | 6.1 | 0.01 | 0.01 | 0.01 | 93 | 1029.6 |
| 20260831230536 | 63 | 223 | 2.6 | 6.1 | 0.01 | 0.01 | 0.01 | 93 | 1029.6 |
| 20260831230051 | 62 | 185 | 2.6 | 6.1 | 0.01 | 0.01 | 0.01 | 93 | 1029.7 |
| 20260831225753 | 62 | 201 | 1.7 | 5.2 | 0.01 | 0.01 | 0.01 | 93 | 1029.7 |
| 20260831225030 | 62 | 205 | 1.7 | 4.3 | 0.01 | 0.01 | 0.01 | 93 | 1029.7 |
| 20260831224531 | 62 | 170 | 1.7 | 6.1 | 0.01 | 0.01 | 0.01 | 93 | 1029.7 |
| 20260831224033 | 62 | 185 | 1.7 | 6.1 | 0.01 | 0.01 | 0.01 | 93 | 1029.7 |
| 20260831223528 | 61 | 185 | 0.9 | 3.5 | 0.01 | 0.01 | 0.01 | 93 | 1029.7 |
| 20260831223258 | 61 | 175 | 0.0 | 2.6 | 0.01 | 0.01 | 0.01 | 93 | 1029.8 |
| 20260831222529 | 61 | 175 | 0.9 | 3.5 | 0.01 | 0.01 | 0.01 | 93 | 1029.8 |
| 20260831222026 | 61 | 175 | 1.7 | 3.5 | 0.01 | 0.01 | 0.01 | 93 | 1029.8 |
| 20260831221529 | 60 | 180 | 1.7 | 3.5 | 0.00 | 0.00 | 0.00 | 93 | 1029.7 |
| 20260831221001 | 60 | 180 | 1.7 | 3.5 | 0.00 | 0.00 | 0.00 | 92 | 1029.7 |
| 20260831220435 | 60 | 161 | 0.9 | 2.6 | 0.00 | 0.00 | 0.00 | 92 | 1029.6 |
| 20260831220347 | 60 | 161 | 0.9 | 2.6 | 0.00 | 0.00 | 0.00 | 92 | 1029.6 |
| 20260831215341 | 59 | 161 | 0.9 | 2.6 | 0.00 | 0.00 | 0.00 | 92 | 1029.5 |
| 20260831214818 | 59 | 246 | 0.0 | 1.7 | 0.00 | 0.00 | 0.00 | 92 | 1029.5 |
| 20260831214253 | 59 | 246 | 0.0 | 1.7 | 0.00 | 0.00 | 0.00 | 92 | 1029.4 |
| 20260831213727 | 59 | 246 | 0.0 | 0.9 | 0.00 | 0.00 | 0.00 | 92 | 1029.5 |
| 20260831213157 | 58 | 246 | 0.0 | 0.0 | 0.00 | 0.00 | 0.00 | 92 | 1029.3 |
| 20260831212628 | 58 | 246 | 0.0 | 0.9 | 0.00 | 0.00 | 0.00 | 92 | 1029.3 |
| 20260831212106 | 58 | 246 | 0.0 | 0.9 | 0.00 | 0.00 | 0.00 | 92 | 1029.2 |
| 20260831211539 | 58 | 246 | 0.0 | 2.6 | 0.00 | 0.00 | 0.00 | 92 | 1029.1 |
| 20260831211008 | 58 | 246 | 0.0 | 2.6 | 0.00 | 0.00 | 0.00 | 92 | 1028.9 |
| 20260831210922 | 57 | 246 | 0.0 | 2.6 | 0.00 | 0.00 | 0.00 | 92 | 1028.9 |
| 20260831205930 | 57 | 246 | 0.0 | 2.6 | 0.00 | 0.00 | 0.00 | 91 | 1028.9 |
| 20260831205429 | 57 | 246 | 0.0 | 1.7 | 0.00 | 0.00 | 0.00 | 91 | 1028.8 |
| 20260831204923 | 57 | 246 | 0.0 | 2.6 | 0.00 | 0.00 | 0.00 | 91 | 1028.7 |
| 20260831204423 | 57 | 246 | 0.0 | 2.6 | 0.00 | 0.00 | 0.00 | 91 | 1028.6 |
| 20260831203920 | 57 | 246 | 0.0 | 1.7 | 0.00 | 0.00 | 0.00 | 91 | 1028.5 |
| 20260831203420 | 56 | 246 | 0.0 | 1.7 | 0.00 | 0.00 | 0.00 | 91 | 1028.5 |
| 20260831202921 | 56 | 246 | 0.0 | 1.7 | 0.00 | 0.00 | 0.00 | 91 | 1028.4 |
| 20260831202418 | 56 | 246 | 0.0 | 1.7 | 0.00 | 0.00 | 0.00 | 91 | 1028.3 |
| 20260831201918 | 56 | 246 | 0.0 | 1.7 | 0.00 | 0.00 | 0.00 | 91 | 1028.3 |
| 20260831201412 | 56 | 246 | 0.0 | 0.9 | 0.00 | 0.00 | 0.00 | 91 | 1028.3 |
| 20260831200911 | 56 | 246 | 0.0 | 0.0 | 0.00 | 0.00 | 0.00 | 91 | 1028.4 |
| 20260831200410 | 56 | 246 | 0.0 | 0.9 | 0.00 | 0.00 | 0.00 | 91 | 1028.2 |
| 20260831195912 | 56 | 246 | 0.0 | 0.9 | 0.00 | 0.00 | 0.00 | 91 | 1028.2 |
| 20260831195342 | 56 | 246 | 0.0 | 0.9 | 0.00 | 0.00 | 0.00 | 91 | 1028.1 |
| 20260831194820 | 56 | 246 | 0.0 | 0.9 | 0.00 | 0.00 | 0.00 | 91 | 1027.9 |
| 20260831194541 | 56 | 246 | 0.0 | 0.9 | 0.00 | 0.00 | 0.00 | 91 | 1027.8 |
| 20260831193804 | 56 | 246 | 0.0 | 0.9 | 0.00 | 0.00 | 0.00 | 91 | 1027.9 |
| 20260831193306 | 56 | 246 | 0.0 | 1.7 | 0.00 | 0.00 | 0.00 | 91 | 1027.9 |
| 20260831192747 | 56 | 246 | 0.0 | 1.7 | 0.00 | 0.00 | 0.00 | 91 | 1027.9 |
| 20260831192509 | 56 | 246 | 0.0 | 1.7 | 0.00 | 0.00 | 0.00 | 91 | 1027.7 |
| 20260831191722 | 56 | 246 | 0.0 | 2.6 | 0.00 | 0.00 | 0.00 | 91 | 1027.6 |
| 20260831191223 | 56 | 246 | 0.0 | 2.6 | 0.00 | 0.00 | 0.00 | 91 | 1027.6 |
| 20260831190708 | 56 | 246 | 0.9 | 2.6 | 0.00 | 0.00 | 0.00 | 91 | 1027.6 |
| 20260831190424 | 56 | 246 | 0.9 | 2.6 | 0.00 | 0.00 | 0.00 | 91 | 1027.7 |
| 20260831185640 | 56 | 247 | 1.7 | 2.6 | 0.00 | 0.00 | 0.00 | 91 | 1027.7 |
| 20260831185140 | 56 | 247 | 1.7 | 4.3 | 0.00 | 0.00 | 0.00 | 91 | 1027.7 |
| 20260831184636 | 56 | 247 | 0.9 | 4.3 | 0.00 | 0.00 | 0.00 | 91 | 1027.7 |
| 20260831184134 | 56 | 204 | 0.9 | 2.6 | 0.00 | 0.00 | 0.00 | 91 | 1027.7 |
| 20260831183633 | 56 | 210 | 0.0 | 1.7 | 0.00 | 0.00 | 0.00 | 92 | 1027.6 |
| 20260831183133 | 56 | 210 | 0.0 | 2.6 | 0.00 | 0.00 | 0.00 | 92 | 1027.5 |
| 20260831182631 | 56 | 210 | 0.0 | 2.6 | 0.00 | 0.00 | 0.00 | 92 | 1027.5 |
| 20260831182130 | 55 | 210 | 0.0 | 1.7 | 0.00 | 0.00 | 0.00 | 91 | 1027.5 |
| 20260831181629 | 55 | 210 | 0.0 | 0.9 | 0.00 | 0.00 | 0.00 | 91 | 1027.6 |
| 20260831181358 | 55 | 210 | 0.0 | 0.9 | 0.00 | 0.00 | 0.00 | 91 | 1027.6 |
| 20260831181114 | 55 | 210 | 0.0 | 0.0 | 0.00 | 0.00 | 0.00 | 91 | 1027.6 |
| 20260831180122 | 55 | 210 | 0.0 | 0.9 | 0.00 | 0.00 | 0.00 | 91 | 1027.6 |
| 20260831175620 | 55 | 210 | 0.0 | 0.9 | 0.00 | 0.00 | 0.00 | 91 | 1027.5 |
| 20260831175121 | 55 | 210 | 0.0 | 0.9 | 0.00 | 0.00 | 0.00 | 91 | 1027.5 |
| 20260831174610 | 55 | 210 | 0.0 | 0.9 | 0.00 | 0.00 | 0.00 | 91 | 1027.5 |
| 20260831174108 | 55 | 210 | 0.0 | 0.9 | 0.00 | 0.00 | 0.00 | 91 | 1027.5 |
| 20260831173606 | 55 | 210 | 0.0 | 0.0 | 0.00 | 0.00 | 0.00 | 91 | 1027.6 |
| 20260831173104 | 55 | 210 | 0.0 | 0.0 | 0.00 | 0.00 | 0.00 | 90 | 1027.7 |
| 20260831172604 | 55 | 210 | 0.0 | 0.0 | 0.00 | 0.00 | 0.00 | 90 | 1027.6 |
| 20260831172101 | 55 | 210 | 0.0 | 0.0 | 0.00 | 0.00 | 0.00 | 90 | 1027.6 |
| 20260831171559 | 55 | 210 | 0.0 | 0.9 | 0.00 | 0.00 | 0.00 | 90 | 1027.6 |
| 20260831171100 | 55 | 210 | 0.0 | 0.9 | 0.00 | 0.00 | 0.00 | 90 | 1027.6 |
| 20260831170554 | 55 | 210 | 0.0 | 0.9 | 0.00 | 0.00 | 0.00 | 90 | 1027.6 |
| 20260831170104 | 55 | 210 | 0.0 | 0.9 | 0.00 | 0.00 | 0.00 | 90 | 1027.7 |
| 20260831165550 | 55 | 210 | 0.0 | 0.9 | 0.00 | 0.00 | 0.00 | 89 | 1027.7 |
| 20260831165051 | 55 | 210 | 0.0 | 0.9 | 0.00 | 0.00 | 0.00 | 89 | 1027.8 |
| 20260831164548 | 55 | 210 | 0.0 | 0.9 | 0.00 | 0.00 | 0.00 | 89 | 1027.8 |
| 20260831164046 | 55 | 210 | 0.0 | 0.9 | 0.00 | 0.00 | 0.00 | 89 | 1027.8 |
| 20260831163543 | 55 | 210 | 0.0 | 0.9 | 0.00 | 0.00 | 0.00 | 89 | 1027.8 |
| 20260831163527 | 55 | 210 | 0.0 | 0.0 | 0.00 | 0.00 | 0.00 | 89 | 1027.8 |
| 20260831162542 | 55 | 210 | 0.0 | 0.0 | 0.00 | 0.00 | 0.00 | 89 | 1027.8 |
| 20260831162037 | 55 | 210 | 0.0 | 0.0 | 0.00 | 0.00 | 0.00 | 88 | 1027.9 |
| 20260831161538 | 55 | 210 | 0.0 | 0.0 | 0.00 | 0.00 | 0.00 | 88 | 1027.9 |
| 20260831161038 | 55 | 210 | 0.0 | 0.0 | 0.00 | 0.00 | 0.00 | 89 | 1028.0 |
| 20260831160532 | 55 | 210 | 0.0 | 0.0 | 0.00 | 0.00 | 0.00 | 88 | 1028.0 |
| 20260831160030 | 55 | 210 | 0.0 | 0.9 | 0.00 | 0.00 | 0.00 | 88 | 1028.1 |
| 20260831155528 | 55 | 210 | 0.0 | 0.9 | 0.00 | 0.00 | 0.00 | 88 | 1028.2 |
| 20260831155029 | 56 | 210 | 0.0 | 0.9 | 0.00 | 0.00 | 0.00 | 88 | 1028.3 |
| 20260831154501 | 56 | 210 | 0.0 | 0.9 | 0.00 | 0.00 | 0.00 | 88 | 1028.3 |
| 20260831154001 | 56 | 210 | 0.0 | 0.0 | 0.00 | 0.00 | 0.00 | 88 | 1028.4 |
| 20260831153458 | 56 | 210 | 0.0 | 0.0 | 0.00 | 0.00 | 0.00 | 87 | 1028.4 |
| 20260831152956 | 56 | 210 | 0.0 | 0.0 | 0.00 | 0.00 | 0.00 | 87 | 1028.5 |
| 20260831152454 | 56 | 210 | 0.0 | 0.0 | 0.00 | 0.00 | 0.00 | 87 | 1028.5 |
| 20260831151951 | 56 | 210 | 0.0 | 0.0 | 0.00 | 0.00 | 0.00 | 87 | 1028.5 |
| 20260831151716 | 56 | 210 | 0.0 | 0.0 | 0.00 | 0.00 | 0.00 | 87 | 1028.5 |
| 20260831150953 | 57 | 210 | 0.0 | 0.0 | 0.00 | 0.00 | 0.00 | 87 | 1028.5 |
| 20260831150715 | 57 | 210 | 0.0 | 0.0 | 0.00 | 0.00 | 0.00 | 87 | 1028.5 |
| 20260831145948 | 57 | 210 | 0.0 | 0.0 | 0.00 | 0.00 | 0.00 | 86 | 1028.5 |
| 20260831145923 | 57 | 210 | 0.0 | 0.0 | 0.00 | 0.00 | 0.00 | 86 | 1028.6 |
| 20260831144939 | 57 | 210 | 0.0 | 0.0 | 0.00 | 0.00 | 0.00 | 86 | 1028.6 |
| 20260831144437 | 58 | 210 | 0.0 | 0.0 | 0.00 | 0.00 | 0.00 | 86 | 1028.6 |
| 20260831143952 | 58 | 210 | 0.0 | 0.0 | 0.00 | 0.00 | 0.00 | 86 | 1028.7 |
| 20260831143411 | 58 | 210 | 0.0 | 0.0 | 0.00 | 0.00 | 0.00 | 86 | 1028.8 |
| 20260831142852 | 58 | 210 | 0.0 | 0.0 | 0.00 | 0.00 | 0.00 | 86 | 1028.8 |
| 20260831142353 | 58 | 210 | 0.0 | 0.0 | 0.00 | 0.00 | 0.00 | 86 | 1028.9 |
| 20260831141827 | 58 | 210 | 0.0 | 0.0 | 0.00 | 0.00 | 0.00 | 86 | 1028.9 |
| 20260831141325 | 59 | 210 | 0.0 | 1.7 | 0.00 | 0.00 | 0.00 | 86 | 1029.0 |
| 20260831140822 | 59 | 210 | 0.0 | 1.7 | 0.00 | 0.00 | 0.00 | 86 | 1029.1 |
| 20260831140319 | 59 | 210 | 0.0 | 1.7 | 0.00 | 0.00 | 0.00 | 86 | 1029.1 |
| 20260831140046 | 59 | 210 | 0.0 | 1.7 | 0.00 | 0.00 | 0.00 | 86 | 1029.1 |
| 20260831135539 | 59 | 210 | 0.9 | 1.7 | 0.00 | 0.00 | 0.00 | 85 | 1029.1 |
| 20260831134819 | 59 | 210 | 0.0 | 1.7 | 0.00 | 0.00 | 0.00 | 85 | 1029.1 |
| 20260831134312 | 60 | 210 | 0.0 | 0.9 | 0.00 | 0.00 | 0.00 | 85 | 1029.2 |
| 20260831133811 | 60 | 210 | 0.0 | 1.7 | 0.00 | 0.00 | 0.00 | 85 | 1029.2 |
| 20260831133308 | 60 | 210 | 0.0 | 1.7 | 0.00 | 0.00 | 0.00 | 85 | 1029.3 |
| 20260831132808 | 60 | 210 | 0.0 | 1.7 | 0.00 | 0.00 | 0.00 | 84 | 1029.3 |
| 20260831132259 | 61 | 210 | 0.0 | 1.7 | 0.00 | 0.00 | 0.00 | 84 | 1029.3 |
| 20260831132023 | 61 | 210 | 0.0 | 0.9 | 0.00 | 0.00 | 0.00 | 84 | 1029.4 |
| 20260831131255 | 61 | 210 | 0.0 | 0.9 | 0.00 | 0.00 | 0.00 | 84 | 1029.4 |
| 20260831130759 | 61 | 210 | 0.0 | 0.0 | 0.00 | 0.00 | 0.00 | 84 | 1029.5 |
| 20260831130246 | 62 | 210 | 0.0 | 0.0 | 0.00 | 0.00 | 0.00 | 83 | 1029.5 |
| 20260831125749 | 62 | 210 | 0.0 | 0.9 | 0.00 | 0.00 | 0.00 | 83 | 1029.5 |
| 20260831125214 | 62 | 210 | 0.0 | 0.9 | 0.00 | 0.00 | 0.00 | 83 | 1029.5 |
| 20260831124712 | 62 | 210 | 0.0 | 0.9 | 0.00 | 0.00 | 0.00 | 83 | 1029.6 |
| 20260831124211 | 63 | 210 | 0.0 | 0.9 | 0.00 | 0.00 | 0.00 | 83 | 1029.6 |
| 20260831123707 | 63 | 210 | 0.0 | 0.9 | 0.00 | 0.00 | 0.00 | 83 | 1029.6 |
| 20260831123431 | 63 | 210 | 0.0 | 0.9 | 0.00 | 0.00 | 0.00 | 83 | 1029.7 |
| 20260831122703 | 63 | 210 | 0.0 | 0.9 | 0.00 | 0.00 | 0.00 | 83 | 1029.7 |
| 20260831122216 | 63 | 210 | 0.0 | 1.7 | 0.00 | 0.00 | 0.00 | 83 | 1029.7 |
| 20260831121920 | 64 | 210 | 0.9 | 1.7 | 0.00 | 0.00 | 0.00 | 83 | 1029.7 |
| 20260831121158 | 64 | 210 | 0.0 | 1.7 | 0.00 | 0.00 | 0.00 | 83 | 1029.7 |
| 20260831120909 | 64 | 210 | 0.0 | 0.9 | 0.00 | 0.00 | 0.00 | 83 | 1029.7 |
| 20260831120151 | 64 | 210 | 0.0 | 2.6 | 0.00 | 0.00 | 0.00 | 83 | 1029.7 |
| 20260831115655 | 64 | 210 | 0.9 | 4.3 | 0.00 | 0.00 | 0.00 | 83 | 1029.7 |
| 20260831115145 | 64 | 227 | 0.9 | 4.3 | 0.00 | 0.00 | 0.00 | 83 | 1029.6 |
| 20260831114918 | 64 | 127 | 1.7 | 4.3 | 0.00 | 0.00 | 0.00 | 83 | 1029.7 |
| 20260831114142 | 64 | 118 | 1.7 | 6.1 | 0.00 | 0.00 | 0.00 | 83 | 1029.7 |
| 20260831113645 | 64 | 119 | 1.7 | 6.1 | 0.00 | 0.00 | 0.00 | 82 | 1029.7 |
| 20260831113119 | 64 | 117 | 2.6 | 6.1 | 0.00 | 0.00 | 0.00 | 82 | 1029.7 |
| 20260831112552 | 64 | 119 | 2.6 | 6.1 | 0.00 | 0.00 | 0.00 | 82 | 1029.8 |
| 20260831112054 | 64 | 103 | 2.6 | 5.2 | 0.00 | 0.00 | 0.00 | 82 | 1029.8 |
| 20260831111537 | 64 | 118 | 1.7 | 7.0 | 0.00 | 0.00 | 0.00 | 82 | 1029.8 |
| 20260831111048 | 64 | 117 | 1.7 | 7.0 | 0.00 | 0.00 | 0.00 | 81 | 1029.8 |
| 20260831110529 | 64 | 120 | 1.7 | 4.3 | 0.00 | 0.00 | 0.00 | 81 | 1029.7 |
| 20260831110027 | 64 | 125 | 1.7 | 7.0 | 0.00 | 0.00 | 0.00 | 81 | 1029.7 |
| 20260831105525 | 64 | 116 | 2.6 | 7.8 | 0.00 | 0.00 | 0.00 | 81 | 1029.7 |
| 20260831105024 | 64 | 124 | 2.6 | 7.8 | 0.00 | 0.00 | 0.00 | 81 | 1029.6 |
| 20260831104523 | 63 | 126 | 2.6 | 7.8 | 0.00 | 0.00 | 0.00 | 82 | 1029.6 |
| 20260831104019 | 63 | 120 | 3.5 | 8.7 | 0.00 | 0.00 | 0.00 | 83 | 1029.6 |
| 20260831103518 | 63 | 129 | 2.6 | 8.7 | 0.00 | 0.00 | 0.00 | 84 | 1029.6 |
| 20260831103018 | 63 | 125 | 0.9 | 7.0 | 0.00 | 0.00 | 0.00 | 84 | 1029.5 |
| 20260831102518 | 63 | 111 | 0.9 | 2.6 | 0.00 | 0.00 | 0.00 | 85 | 1029.5 |
| 20260831102234 | 63 | 111 | 0.9 | 1.7 | 0.00 | 0.00 | 0.00 | 84 | 1029.5 |
| 20260831101738 | 63 | 111 | 0.0 | 1.7 | 0.00 | 0.00 | 0.00 | 84 | 1029.5 |